Location: Paris
(48.6709°N, 2.3750°E)
Time: 12:54:28
(UTC+02:00)

CAS-4B - Pass Details

Date: 11 July 2022
Orbit: 522 x 536 km, 43.0° (Epoch: 18 August)

Event Time Altitude Azimuth Distance (km) Brightness Sun altitude
Rises 23:06:15 0° 214° (SW) 2,636 ? -9.8°
Reaches altitude 10° 23:09:05 10° 194° (SSW) 1,749 ? -10.1°
Maximum altitude 23:11:39 17° 153° (SSE) 1,380 ? -10.4°
Enters shadow 23:12:51 15° 132° (SE) 1,467 ? -10.5°
